Charlottesville, VA

10:44 AM EST on February 24, 2017 (GMT -0500)
Charlottesville-Albemarle

Weather History for KCHO - April, 2014

Change the Weather History Date:

Tuesday, April 15, 2014

  Actual Average Record
Temperature  
Mean Temperature 51 °F 55 °F  
Max Temperature 67 °F 68 °F 90 °F (1960)
Min Temperature 35 °F 43 °F 26 °F (1943)
Degree Days  
Heating Degree Days 14 10  
Month to date heating degree days 124 182  
Since 1 July heating degree days 4360 4186  
Cooling Degree Days 0 1  
Month to date cooling degree days 9 7  
Year to date cooling degree days 9 9  
Growing Degree Days 2 (Base 50)    
Moisture  
Dew Point 53 °F    
Average Humidity 74    
Maximum Humidity 100    
Minimum Humidity 48    
Precipitation  
Precipitation 1.41 in 0.10 in 1.41 in (2014)
Month to date precipitation 2.20 1.70  
Year to date precipitation 9.78 10.83  
Sea Level Pressure  
Sea Level Pressure 29.70 in    
Wind  
Wind Speed 9 mph (SW)    
Max Wind Speed 22 mph    
Max Gust Speed 31 mph    
Visibility 7 miles    
Events Rain    
T = Trace of Precipitation, MM = Missing Value Source: NWS Daily Summary

Daily Weather History Graph

Daily Weather History Graph

Search for Another Location

Airport or City:

Trip Planner

Search our weather history database for the weather conditions in past years. The results will help you decide how hot, cold, wet, or windy it might be!

Date:

Astronomy

Apr. 15, 2014 Rise Set
Actual Time 6:38 AM EDT 7:49 PM EDT
Civil Twilight 6:11 AM EDT 8:17 PM EDT
Nautical Twilight 5:38 AM EDT 8:49 PM EDT
Astronomical Twilight 5:04 AM EDT 9:23 PM EDT
Moon 8:28 PM EDT (4/15) 6:45 AM EDT (4/15)
Length of Visible Light 14h 06m
Length of Day
13h 11m
Full, 100% of the Moon is Illuminated
Apr 15
Full
Apr 22
Last Quarter
Apr 29
New
May 6
First Quarter
May 14
Full

Hourly Weather History & Observations

Time (EDT) Temp. Windchill Dew Point Humidity Pressure Visibility Wind Dir Wind Speed Gust Speed Precip Events Conditions
12:53 AM 66.9 °F - 59.0 °F 76% 29.77 in 10.0 mi South 13.8 mph - N/A   Overcast
1:34 AM 64.0 °F - 60.1 °F 87% 29.76 in 10.0 mi South 11.5 mph - 0.00 in   Overcast
1:53 AM 63.0 °F - 61.0 °F 93% 29.74 in 4.0 mi South 11.5 mph - 0.05 in Rain Heavy Rain
2:12 AM 63.0 °F - 61.0 °F 93% 29.74 in 6.0 mi South 10.4 mph - 0.02 in Rain Light Rain
2:36 AM 63.0 °F - 61.0 °F 93% 29.73 in 5.0 mi South 9.2 mph - 0.05 in Rain Rain
2:45 AM 63.0 °F - 61.0 °F 93% 29.72 in 6.0 mi SSE 9.2 mph - 0.07 in Rain Light Rain
2:53 AM 63.0 °F - 61.0 °F 93% 29.70 in 9.0 mi South 11.5 mph - 0.07 in Rain Light Rain
3:05 AM 64.0 °F - 61.0 °F 90% 29.71 in 10.0 mi South 15.0 mph 31.1 mph 0.00 in   Overcast
4:53 AM 63.0 °F - 62.1 °F 97% 29.62 in 2.5 mi SSE 11.5 mph - 0.22 in Rain Heavy Rain
4:56 AM 63.0 °F - 62.1 °F 97% 29.64 in 3.0 mi SSE 11.5 mph - 0.01 in Rain Heavy Rain
5:18 AM 63.0 °F - 62.1 °F 97% 29.63 in 6.0 mi South 15.0 mph 23.0 mph 0.06 in Rain Rain
5:53 AM 64.0 °F - 62.1 °F 93% 29.63 in 4.0 mi Variable 6.9 mph - 0.13 in Rain Light Rain
5:55 AM 64.0 °F - 62.1 °F 93% 29.65 in 2.5 mi Variable 6.9 mph - 0.04 in Rain Heavy Rain
6:08 AM 63.0 °F - 61.0 °F 93% 29.65 in 2.0 mi SSW 15.0 mph 23.0 mph 0.23 in Rain Heavy Rain
6:18 AM 62.1 °F - 60.1 °F 93% 29.66 in 3.0 mi SSW 16.1 mph 23.0 mph 0.28 in Rain Heavy Rain
6:53 AM 62.1 °F - 61.0 °F 96% 29.62 in 4.0 mi Variable 3.5 mph - 0.48 in Rain Rain
7:42 AM 62.1 °F - 61.0 °F 96% 29.63 in 7.0 mi South 4.6 mph - 0.10 in Rain Light Rain
7:51 AM 62.6 °F - 62.6 °F 100% 29.63 in 10.0 mi South 9.2 mph - 0.10 in Rain Light Rain
7:53 AM 63.0 °F - 62.1 °F 97% 29.61 in 10.0 mi South 9.2 mph - 0.10 in Rain Light Rain
8:25 AM 63.0 °F - 62.1 °F 97% 29.62 in 8.0 mi South 11.5 mph - 0.03 in Rain Light Rain
8:53 AM 63.0 °F - 61.0 °F 93% 29.60 in 8.0 mi South 9.2 mph - 0.04 in Rain Light Rain
9:53 AM 64.0 °F - 62.1 °F 93% 29.56 in 10.0 mi South 6.9 mph - 0.00 in   Partly Cloudy
10:42 AM 64.9 °F - 62.1 °F 90% 29.59 in 10.0 mi SSW 12.7 mph - N/A   Mostly Cloudy
10:53 AM 64.0 °F - 62.1 °F 93% 29.59 in 10.0 mi SSW 9.2 mph 19.6 mph N/A   Mostly Cloudy
11:16 AM 66.0 °F - 62.1 °F 87% 29.58 in 10.0 mi South 12.7 mph - N/A   Mostly Cloudy
11:53 AM 66.0 °F - 62.1 °F 87% 29.56 in 10.0 mi South 9.2 mph - 0.00 in Rain Light Rain
12:53 PM 66.0 °F - 62.1 °F 87% 29.55 in 10.0 mi South 9.2 mph - 0.01 in   Overcast
1:53 PM 61.0 °F - 52.0 °F 72% 29.58 in 10.0 mi WNW 8.1 mph 19.6 mph 0.00 in   Overcast
2:53 PM 57.0 °F - 53.1 °F 87% 29.62 in 10.0 mi WNW 5.8 mph - 0.04 in Rain Light Rain
3:49 PM 51.8 °F - 44.6 °F 76% 29.66 in 2.5 mi NW 13.8 mph 23.0 mph 0.03 in Rain Rain
3:53 PM 51.1 °F - 45.0 °F 80% 29.66 in 2.5 mi NW 10.4 mph 23.0 mph 0.04 in Rain Rain
4:53 PM 46.9 °F - 42.1 °F 83% 29.70 in 2.5 mi NW 8.1 mph 19.6 mph 0.04 in Rain Light Rain
5:00 PM 46.9 °F - 43.0 °F 86% 29.71 in 2.0 mi NNW 5.8 mph - 0.02 in Rain Rain
5:53 PM 44.1 °F 39.0 °F 39.0 °F 82% 29.75 in 2.0 mi NNW 9.2 mph 17.3 mph 0.08 in Rain Light Rain
6:00 PM 43.0 °F 36.4 °F 37.9 °F 82% 29.76 in 10.0 mi North 12.7 mph 23.0 mph 0.01 in Rain Light Rain
6:07 PM 43.0 °F 37.2 °F 37.0 °F 80% 29.77 in 2.5 mi North 10.4 mph 24.2 mph 0.02 in Rain Light Rain
6:53 PM 43.0 °F 36.4 °F 36.0 °F 76% 29.81 in 2.5 mi NNW 12.7 mph 20.7 mph 0.04 in Rain Light Rain
7:00 PM 42.1 °F 35.2 °F 35.1 °F 76% 29.81 in 7.0 mi NNW 12.7 mph 21.9 mph 0.00 in Rain Light Rain
7:53 PM 42.1 °F 37.1 °F 35.1 °F 76% 29.84 in 7.0 mi NNW 8.1 mph - 0.01 in   Overcast
8:53 PM 42.1 °F 36.1 °F 30.9 °F 65% 29.89 in 10.0 mi NNW 10.4 mph 20.7 mph N/A   Overcast
9:53 PM 41.0 °F 33.9 °F 27.0 °F 57% 29.95 in 10.0 mi North 12.7 mph 23.0 mph N/A   Scattered Clouds
10:53 PM 39.0 °F 32.8 °F 24.1 °F 55% 30.02 in 10.0 mi North 9.2 mph - N/A   Mostly Cloudy
11:53 PM 37.0 °F 30.4 °F 19.9 °F 50% 30.04 in 10.0 mi North 9.2 mph 31.1 mph N/A   Mostly Cloudy